RH
15 15 15 13 12 10 8 7 8 13 15 13 12 11 9 10 10 10 12 18 23 29 38 42 49 55 69 78 83 90 95 93 89 92 84 75 74 60 51 41 44 48 50 49 44
16 15 15 14 11 11 10 9 8 8 12 15 12 12 11 8 10 10 13 15 23 29 33 39 51 59 73 78 83 88 91 90 86 83 81 74 71 66 54 48 44 45 51 47 42
16 15 16 14 12 11 10 10 9 8 9 12 14 12 12 8 8 12 14 14 20 28 31 37 51 64 73 75 79 86 89 92 89 85 84 79 77 72 55 46 39 43 49 50 45
16 16 15 13 11 10 10 10 9 9 9 9 12 14 13 9 9 15 15 14 18 24 31 40 52 66 78 73 77 84 83 91 90 87 87 84 78 77 59 45 38 44 48 54 52
14 13 13 11 10 10 9 10 10 9 9 10 10 14 14 11 9 15 15 15 20 19 28 41 58 69 81 79 81 84 84 86 91 85 89 87 83 81 79 55 44 46 50 55 59
15 13 11 10 9 9 8 9 9 10 11 11 11 12 17 13 8 13 15 14 19 18 20 40 57 72 71 73 74 81 85 85 87 88 92 92 87 85 85 65 52 45 49 55 61
18 15 12 10 9 8 7 7 9 11 12 14 12 12 15 17 10 14 12 15 18 20 16 31 61 66 70 63 66 81 82 88 91 93 93 95 96 91 90 75 61 44 49 51 54
21 17 13 11 11 9 8 9 13 13 13 14 14 13 14 18 14 13 14 13 16 19 17 26 59 65 64 61 56 79 83 86 90 94 96 96 98 96 90 87 78 60 50 48 50
23 21 15 13 13 12 14 17 18 18 12 12 13 14 14 17 16 17 15 14 13 19 18 24 46 58 60 54 56 70 87 83 87 84 90 91 93 94 93 88 84 67 55 53 53
26 23 18 16 15 17 19 19 17 22 18 13 13 17 18 20 19 20 17 14 12 14 17 25 43 53 57 53 57 58 71 80 83 87 86 84 84 90 89 90 85 82 64 58 53
27 23 20 19 17 20 18 16 17 17 17 16 13 15 17 21 20 17 18 15 11 13 16 25 43 50 51 52 52 54 57 72 89 88 91 91 91 84 82 84 83 82 68 62 58
26 21 22 19 16 18 17 15 17 18 16 15 14 15 17 19 22 22 20 19 13 16 18 27 38 48 50 49 50 51 64 85 88 89 90 96 96 90 85 84 87 90 79 67 62
28 23 22 20 17 18 16 17 17 18 20 17 13 17 19 21 22 24 22 21 15 16 21 26 28 44 44 47 52 50 56 82 78 82 84 82 88 91 86 87 91 91 85 74 63
28 24 20 18 18 18 16 18 18 19 23 21 16 18 20 22 24 24 25 23 19 18 21 25 26 40 45 42 48 52 60 59 73 73 72 70 76 82 83 86 88 90 86 81 74
25 21 15 15 14 17 18 18 17 22 32 28 21 21 21 21 23 23 25 27 26 22 21 25 25 26 39 40 41 49 53 65 65 65 65 68 70 69 74 78 85 87 84 83 80
18 13 11 10 13 16 18 19 18 27 41 35 29 27 23 25 26 30 27 28 32 29 24 24 23 23 23 30 38 42 49 63 71 70 69 63 66 69 73 67 75 82 85 82 81
13 11 8 11 15 18 19 21 24 39 38 37 35 31 31 31 30 33 34 34 37 38 33 26 24 23 23 21 25 36 44 65 81 78 75 64 70 64 68 66 67 73 71 76 81
13 10 9 12 17 22 26 27 35 38 41 38 39 36 36 35 31 34 38 38 39 41 41 36 28 22 21 23 23 28 39 55 70 81 70 69 66 61 70 68 68 73 73 76 80
20 16 17 18 20 24 28 35 39 39 41 42 37 40 44 41 38 38 36 40 39 41 42 41 32 24 20 23 25 24 31 42 55 60 66 70 57 65 71 70 68 70 73 78 79
25 24 25 29 33 36 36 37 40 44 43 48 49 45 42 46 42 43 42 39 40 40 42 41 39 30 26 25 27 26 26 35 45 54 56 60 65 62 72 71 71 71 68 72 74
30 27 32 33 37 42 46 49 46 43 48 52 50 51 53 49 49 47 44 41 39 40 43 43 43 38 32 29 30 30 30 33 35 46 50 60 57 59 67 69 70 70 71 71 72
27 34 33 34 41 47 50 48 43 46 49 51 49 49 47 54 50 50 49 48 45 44 44 43 46 47 39 36 35 33 31 33 37 38 47 45 47 55 62 67 70 72 75 75 77
29 34 37 37 39 41 44 52 48 47 42 42 46 46 47 48 48 50 49 48 48 48 48 47 47 48 45 42 38 41 37 34 36 44 52 44 42 54 59 66 69 72 72 74 75
30 31 34 35 35 33 32 42 48 40 41 45 49 48 50 53 55 49 45 47 48 46 50 51 54 48 53 48 45 44 39 36 35 41 44 47 52 57 64 65 65 68 73 77 74
29 33 30 33 30 33 34 26 27 33 32 35 38 48 54 56 55 52 46 43 48 50 49 52 53 52 51 53 49 48 42 37 34 36 41 39 51 50 56 66 66 66 70 78 80
33 33 32 32 29 29 30 31 28 28 27 28 34 47 51 58 59 59 55 52 53 54 51 53 59 54 56 56 55 48 49 47 40 45 49 49 52 52 55 61 68 65 66 71 74
26 29 26 28 27 27 28 25 23 21 21 20 23 33 43 55 62 59 57 58 61 58 56 56 61 65 63 56 56 54 53 58 52 49 50 50 47 56 60 60 64 67 68 67 66